Theta_e
354 353 352 352 351 350 349 350 349 351 351 350 347 345 345 346 349 347 346 347 347 349 349 350 349 347 346 346 346 346 347 348 349 349 349 350 350 352 356 358 360 361 363 363 362 361 360 359 359 359 358 358 358 357 357 357 357 357 357 357 357 357 358 357 357 357 357 357 357 356 355 355 355 355 355 355 355 355 355 355 355 354 353 354 354
354 353 352 351 349 349 350 349 349 349 350 349 348 346 345 347 348 349 348 348 350 350 351 350 350 350 348 346 346 347 347 347 348 348 349 349 350 353 358 358 360 361 362 362 359 359 361 360 360 359 359 359 358 358 357 357 357 357 357 358 357 357 357 358 357 357 357 357 357 357 356 355 355 355 355 355 356 356 356 356 355 355 354 354 354
354 353 352 351 348 348 347 348 349 350 350 349 350 349 348 347 348 348 348 347 349 349 349 348 347 347 349 348 347 346 347 348 348 349 349 350 350 350 353 359 360 361 362 361 360 361 360 360 360 360 360 359 359 359 358 357 357 357 358 358 358 358 357 358 357 358 358 357 357 357 357 356 356 356 356 356 356 356 356 356 356 355 355 355 355
353 352 351 349 347 347 347 348 349 351 353 352 351 353 351 350 349 349 349 348 348 346 347 345 345 346 344 347 347 347 346 346 346 347 348 349 350 349 350 353 360 362 363 362 360 361 362 360 359 360 360 360 359 360 359 358 358 358 358 358 359 358 358 357 358 358 359 358 357 357 357 357 357 356 356 357 357 357 357 357 356 356 356 356 355
353 352 355 349 348 348 348 351 352 352 353 354 352 349 350 350 350 353 351 350 349 348 348 346 345 345 345 345 346 346 347 347 347 347 347 348 349 349 348 351 352 358 362 360 359 359 360 359 360 360 360 361 360 360 360 359 358 358 359 359 359 358 358 358 358 358 358 358 358 358 358 358 358 357 357 357 357 357 357 357 357 357 356 356 356
356 354 354 350 349 349 349 350 352 353 353 353 349 349 348 348 349 349 351 351 349 348 345 344 344 344 345 346 346 346 346 345 345 347 348 347 349 349 348 349 350 351 357 361 361 362 360 361 359 358 360 359 360 361 360 360 360 359 359 359 359 359 359 358 358 358 358 359 359 359 359 358 358 358 358 358 357 357 357 357 357 357 357 357 357
357 356 355 353 351 350 351 353 352 352 350 350 350 349 349 348 349 347 346 344 342 344 344 343 341 341 342 345 345 346 346 346 347 347 348 349 349 350 350 350 350 350 352 357 360 362 362 362 362 360 359 360 359 359 361 361 360 359 360 359 359 359 359 359 359 358 358 358 359 359 359 359 359 359 359 359 358 358 358 358 358 358 358 358 358
357 357 355 354 352 350 348 347 352 351 349 349 351 349 350 349 347 344 341 342 342 342 342 342 342 342 342 343 342 345 344 344 346 348 349 349 348 349 350 351 351 350 354 353 357 360 362 361 362 361 360 361 360 359 358 359 361 360 360 360 360 360 359 359 359 359 359 358 358 359 359 359 359 360 359 359 359 358 358 359 359 359 359 358 358
358 357 353 351 347 349 348 349 350 350 351 350 349 350 346 347 342 345 344 342 344 342 339 339 340 340 339 340 341 342 340 339 340 343 347 348 348 348 349 350 352 357 353 353 354 356 360 362 362 362 362 360 360 359 360 359 358 361 361 360 360 360 360 359 359 360 359 359 359 359 359 359 359 360 360 360 359 359 360 359 360 359 359 359 359
354 352 351 352 349 348 348 348 348 347 347 346 343 343 343 342 339 339 342 341 341 341 339 339 340 341 341 341 341 340 340 339 339 345 342 343 345 346 349 350 352 352 353 353 353 354 356 359 363 363 363 362 361 362 361 360 360 358 360 361 361 360 360 360 359 359 360 359 359 359 359 359 360 359 360 360 360 360 360 360 360 360 359 359 359
352 352 349 350 349 347 348 347 347 343 341 341 340 341 342 339 338 339 340 340 339 339 339 339 340 340 339 340 339 339 339 339 341 340 339 342 346 348 349 349 351 352 352 352 352 353 354 355 357 359 360 363 363 362 362 361 360 360 359 359 360 361 361 360 360 360 360 359 359 359 360 360 359 360 360 360 360 359 359 360 360 360 359 359 359
350 349 347 349 347 347 347 344 343 341 339 338 338 336 337 337 338 337 338 339 341 340 340 339 337 336 338 338 338 338 338 340 339 339 340 339 341 345 346 347 349 352 353 353 352 351 351 353 356 356 357 359 362 363 361 362 361 361 360 360 361 359 361 360 360 360 360 359 360 359 359 360 360 360 360 360 359 359 359 359 359 360 360 359 359
353 349 349 352 349 345 342 342 342 342 340 341 340 339 338 338 338 339 338 336 334 336 338 337 333 331 332 334 335 338 339 340 339 339 339 338 337 339 343 346 346 348 352 353 351 351 350 350 350 352 355 357 359 361 360 360 361 360 360 360 360 360 360 359 360 360 360 360 360 360 359 358 359 359 359 359 359 359 358 358 358 359 359 360 360
354 350 350 348 347 343 342 342 342 343 343 342 340 344 341 339 339 336 337 337 334 336 338 336 330 329 328 329 329 332 335 337 338 340 340 340 338 336 337 342 345 345 347 345 346 348 350 351 350 350 351 353 355 356 355 356 356 360 361 360 360 360 360 360 359 359 361 361 360 360 360 358 358 358 359 359 358 358 358 357 357 358 358 359 359
350 353 351 348 346 345 344 344 345 345 342 340 339 339 340 340 338 337 336 335 337 339 337 337 330 331 330 326 321 324 329 330 335 336 337 338 340 338 339 340 343 346 343 343 344 345 347 348 348 349 350 351 352 354 355 357 359 360 359 358 359 360 360 360 361 360 360 362 362 361 360 359 358 358 358 358 358 357 357 357 357 357 357 358 358
353 351 351 349 347 347 344 344 345 344 343 340 338 339 339 338 337 338 335 333 330 332 341 337 334 331 324 322 323 325 322 322 328 332 336 336 337 340 341 341 342 341 342 341 342 343 344 346 346 346 348 350 351 352 354 355 358 359 360 360 358 356 358 360 360 359 360 360 361 361 360 359 358 357 359 358 358 358 357 357 357 357 356 357 358
348 348 350 346 346 346 345 344 342 344 344 341 339 340 339 336 336 336 334 331 329 331 334 338 335 335 331 327 323 321 323 325 328 328 335 334 334 336 341 340 339 341 340 341 342 343 344 344 345 346 347 348 349 350 351 352 354 358 358 359 359 358 357 359 360 361 361 361 360 361 360 359 359 358 359 359 358 358 357 357 357 356 356 356 357
343 345 346 345 343 342 341 341 342 342 343 341 339 339 336 335 335 333 331 332 331 329 328 334 337 338 337 334 331 326 325 327 325 322 331 333 333 336 335 336 336 338 340 341 342 343 346 345 345 345 346 346 347 348 348 349 353 352 353 354 358 356 355 356 358 360 360 361 360 360 361 360 359 359 359 360 360 358 358 357 357 357 356 357 357
342 341 343 344 341 340 340 340 341 339 345 338 338 336 336 334 336 333 334 335 333 328 328 330 333 333 336 335 335 335 333 327 323 325 322 327 333 332 333 335 335 335 337 339 342 343 343 345 345 345 345 346 346 346 347 348 352 353 356 357 357 357 356 356 356 359 361 360 358 358 360 361 360 359 358 358 360 360 358 358 357 357 356 356 357
338 342 344 346 344 340 338 339 338 339 340 335 336 336 337 338 339 336 337 339 334 332 331 330 329 329 335 333 335 337 334 332 329 326 326 323 324 329 333 334 333 334 335 336 339 341 342 343 343 343 345 346 347 346 346 347 347 349 353 355 356 356 356 356 357 358 360 360 356 355 355 358 361 361 359 360 360 361 360 359 358 357 357 357 357
341 339 341 341 346 339 338 338 337 338 340 336 335 336 335 336 336 337 337 338 338 336 332 331 329 328 328 327 329 328 330 332 331 329 326 321 321 324 326 330 331 332 333 334 335 337 340 341 343 345 345 346 346 347 347 347 347 347 351 354 356 357 356 354 355 358 359 360 358 356 355 356 357 360 363 362 361 361 361 360 359 358 357 357 358
336 340 338 339 342 341 338 337 336 340 340 333 333 332 332 332 334 334 333 333 334 337 336 333 333 332 330 329 328 326 324 323 325 325 325 325 321 323 325 325 324 327 332 332 333 334 335 336 338 342 345 345 347 347 347 347 347 348 349 353 354 355 355 354 354 356 358 359 358 358 357 356 358 358 359 362 363 362 361 361 361 360 360 359 359
339 338 337 339 339 342 337 336 338 345 340 333 333 333 333 333 333 333 333 332 331 332 336 335 334 332 330 329 328 327 325 323 322 324 323 321 321 322 324 325 326 325 328 331 333 333 333 334 334 335 339 342 346 347 347 347 350 350 351 352 352 352 352 353 352 354 353 354 358 359 360 360 360 360 360 362 363 362 363 362 362 362 361 361 360
334 333 336 340 339 337 342 338 339 334 334 333 335 334 334 334 333 333 332 331 332 335 331 331 331 330 329 330 329 329 328 325 326 325 323 323 322 322 322 323 324 325 329 330 331 330 331 332 333 334 337 340 344 346 348 349 349 352 351 352 351 351 351 351 351 351 351 351 351 354 358 359 360 360 361 360 363 363 363 363 362 363 363 361 360
330 335 336 337 339 335 334 335 336 338 336 334 335 334 333 332 332 332 331 330 330 330 329 329 330 329 328 330 329 328 327 328 328 326 327 325 323 319 322 324 321 323 325 326 325 329 329 330 332 334 335 337 341 344 346 347 348 350 353 352 350 349 349 349 348 348 349 349 349 352 354 354 354 356 357 359 360 361 363 363 363 363 362 362 360
331 334 335 336 338 338 341 335 335 335 338 334 334 334 333 332 333 331 330 330 331 331 329 330 330 329 329 328 327 327 328 329 327 327 326 325 322 319 321 321 320 321 322 321 323 323 325 328 330 332 334 337 340 342 344 345 346 350 352 351 348 347 347 346 347 346 346 347 347 349 350 352 352 353 354 355 357 358 360 362 363 364 364 363 361
332 335 337 335 335 336 336 335 336 335 337 336 340 335 335 335 335 333 333 332 331 332 330 330 331 328 328 327 329 327 327 327 327 327 326 326 323 321 320 319 317 317 317 318 320 320 322 325 328 329 331 334 334 335 337 340 343 347 351 348 348 348 346 345 345 345 344 344 345 346 347 348 350 352 352 353 354 357 358 359 360 361 361 361 360
333 335 335 335 334 335 337 335 334 335 335 335 333 333 333 332 330 331 332 337 331 330 330 329 329 328 328 327 326 327 328 328 327 327 325 326 325 324 322 319 317 312 314 313 313 314 321 320 323 327 329 330 331 332 336 335 334 341 344 346 346 346 346 344 344 343 343 343 343 343 344 345 346 347 349 351 351 352 353 355 356 356 357 357 357
334 338 333 334 335 333 333 332 333 334 334 334 334 333 332 332 333 330 331 331 333 331 330 329 329 329 327 328 327 326 326 326 328 328 326 325 323 323 322 320 317 316 314 311 311 312 316 321 320 322 326 326 327 328 328 329 332 335 335 338 342 344 344 342 342 341 342 342 341 341 342 342 342 343 345 347 347 349 350 350 351 352 353 353 354
336 337 335 334 332 341 332 332 332 333 334 333 332 333 332 331 332 331 332 331 331 331 332 331 330 329 331 330 329 327 328 326 326 326 326 323 322 323 321 319 320 317 317 313 312 314 315 319 320 319 322 323 325 325 327 327 333 333 333 334 336 340 341 341 341 341 341 341 340 339 340 340 341 341 341 342 343 345 348 348 348 349 350 351 352
337 334 332 330 331 331 332 332 332 332 331 331 332 332 331 330 331 332 332 332 331 330 330 332 332 332 330 329 327 326 326 326 324 324 325 324 321 322 319 319 319 319 317 316 312 316 319 315 318 321 321 322 323 324 324 325 329 331 331 332 334 338 341 342 341 340 340 339 338 338 337 337 338 339 339 339 340 342 344 346 346 347 348 349 350
332 332 331 332 332 331 332 332 330 330 329 330 331 331 331 331 331 333 332 332 331 331 331 332 334 333 330 328 327 326 325 325 324 324 323 323 323 320 319 319 317 318 318 317 315 314 317 317 318 320 321 321 322 321 322 324 328 331 329 331 333 339 337 339 342 341 339 338 337 337 335 335 336 337 338 338 339 340 342 342 342 344 345 346 347
332 332 331 331 330 331 330 332 330 329 329 330 331 331 330 330 330 331 331 332 331 331 332 331 331 331 329 327 326 327 326 325 324 324 323 321 321 320 321 317 317 317 317 316 315 314 316 318 319 319 320 320 319 321 320 321 322 324 329 328 330 333 335 336 340 342 341 338 336 335 335 335 335 335 336 337 338 340 341 343 342 342 343 342 343
331 331 330 330 331 331 330 330 330 331 330 330 331 331 331 330 330 332 332 330 329 329 328 329 329 331 330 327 326 327 326 325 325 323 323 322 320 318 317 319 316 317 319 317 316 315 313 316 317 318 318 320 317 320 319 320 321 324 324 325 328 331 333 336 337 340 342 340 336 334 334 334 334 335 335 336 337 338 339 340 340 340 340 339 340
332 331 330 330 330 330 330 331 330 330 330 330 331 330 330 330 330 330 331 329 329 329 329 329 329 329 328 328 326 326 327 325 324 323 323 321 320 319 319 319 318 318 318 319 317 315 314 315 317 317 317 318 317 318 320 321 323 323 323 324 327 330 333 335 336 338 341 340 337 335 334 334 334 334 334 335 335 335 336 336 337 337 337 337 337
330 332 332 331 330 330 330 331 330 330 330 330 330 330 331 331 330 330 329 329 329 329 329 329 328 328 327 326 326 325 325 324 323 322 322 321 320 320 319 319 318 318 319 319 318 316 316 315 317 317 317 316 317 319 321 322 322 322 324 325 328 329 332 334 335 337 339 338 338 336 335 333 333 333 332 332 332 332 332 332 333 333 333 333 333
330 330 332 333 331 330 331 330 330 329 330 330 330 330 331 332 331 331 330 329 328 328 328 328 331 328 327 326 326 325 324 323 322 321 321 320 320 320 319 319 319 319 320 319 319 318 317 316 317 318 318 317 318 318 320 319 320 322 323 324 325 327 330 333 336 337 337 337 338 337 335 334 333 332 332 331 331 331 330 330 329 330 330 330 330
330 330 330 331 333 330 330 330 330 329 329 330 330 330 331 332 332 332 331 330 330 329 329 329 329 329 328 327 327 325 324 322 322 322 321 320 320 319 319 319 320 320 318 318 318 318 317 318 317 316 316 315 315 317 318 320 319 319 320 322 325 327 329 331 334 337 338 339 341 343 338 336 334 333 332 332 331 330 329 328 328 327 326 326 325
329 329 329 327 329 328 327 327 329 330 329 329 328 328 329 330 331 331 331 330 330 330 330 330 330 329 328 327 326 325 324 323 322 322 321 321 321 320 321 320 320 318 318 318 318 318 319 318 317 316 314 315 316 314 317 320 320 320 319 320 321 325 327 329 330 335 337 339 340 339 340 340 338 336 332 329 330 330 330 328 326 324 324 322 322
327 327 326 327 327 328 328 328 329 328 326 325 324 325 327 329 331 331 331 330 330 329 330 330 330 330 329 328 326 325 324 324 323 323 322 321 321 321 321 321 320 319 318 318 318 319 319 317 315 313 314 314 315 316 318 317 316 317 320 320 319 320 322 325 327 329 334 337 338 341 340 339 337 335 331 331 330 330 329 329 329 328 325 323 321
330 328 328 327 326 326 326 327 327 327 327 327 327 327 327 329 330 331 331 331 330 330 329 329 328 328 328 327 327 326 328 330 327 325 324 322 322 320 320 320 320 319 319 318 319 320 319 316 314 314 313 312 313 313 313 313 314 314 318 320 320 321 323 323 325 329 332 334 336 339 340 342 341 340 340 338 337 334 332 332 333 333 329 323 322
329 330 328 328 328 328 327 327 326 327 328 330 334 334 334 331 330 332 332 331 331 330 329 328 327 326 326 326 328 333 330 327 325 325 323 321 321 322 322 320 320 319 318 318 318 319 317 315 314 312 311 311 312 313 313 314 316 317 317 318 318 320 321 321 322 325 331 334 335 335 338 343 342 341 341 339 340 340 338 336 335 335 333 328 325
329 330 330 328 329 329 328 327 326 327 328 329 330 327 330 334 334 331 331 331 330 329 328 327 326 327 327 326 324 327 330 330 330 328 325 322 321 320 319 319 319 321 319 318 318 318 317 316 315 313 312 311 313 314 315 315 316 316 316 317 318 319 318 317 316 322 330 333 334 334 336 341 342 340 341 341 342 341 340 339 336 334 331 329 327
329 329 329 329 329 328 329 327 326 327 326 329 325 326 328 328 333 333 330 330 330 328 328 327 327 327 326 325 325 325 325 326 326 325 326 325 322 320 320 319 318 318 319 321 320 317 317 316 315 314 313 312 313 315 315 315 315 316 316 317 317 317 317 317 318 318 325 335 332 332 333 339 341 341 340 342 343 343 343 337 334 333 331 329 328
330 329 329 329 329 329 329 328 328 328 327 327 325 325 325 325 326 328 327 327 327 327 327 327 326 325 325 325 325 325 325 329 330 326 324 324 322 320 319 319 319 318 319 318 319 321 321 318 316 315 315 314 314 316 318 317 317 315 316 316 317 318 318 318 319 320 324 330 332 331 331 336 340 339 339 342 343 344 344 336 334 333 331 329 329
330 330 329 329 330 329 330 329 329 328 326 326 324 322 322 322 323 325 325 325 326 326 326 326 326 325 325 324 323 324 324 323 323 322 321 321 321 321 321 322 322 323 320 319 318 317 319 320 317 315 317 318 316 318 320 319 317 316 315 315 317 317 318 318 320 322 324 329 329 330 329 333 338 339 338 341 344 344 344 339 332 331 330 328 328
329 329 329 329 330 331 329 328 327 326 327 325 322 320 318 317 319 323 323 325 325 324 325 325 325 325 325 325 324 324 323 322 323 323 321 320 319 320 320 320 321 321 322 323 323 322 321 320 318 318 319 320 320 320 319 318 317 317 318 317 318 318 319 321 322 322 323 327 329 329 325 331 338 338 339 341 343 344 346 337 332 330 329 327 327
330 330 330 330 329 329 329 327 326 326 326 317 318 317 316 316 319 322 322 322 322 322 322 323 323 324 324 325 324 323 322 322 321 319 320 320 317 318 319 321 321 320 320 318 318 319 320 320 320 321 321 320 316 317 318 317 316 317 318 320 320 319 318 317 316 319 320 324 328 328 326 329 334 335 339 342 342 342 344 346 334 329 328 327 327
329 329 329 329 329 327 327 326 325 325 323 319 315 315 315 315 317 319 319 320 320 320 321 323 324 325 325 325 324 323 322 322 322 319 317 316 319 319 319 317 316 315 316 319 318 316 315 313 311 312 312 312 313 313 313 313 316 317 318 317 316 317 316 314 316 317 318 321 325 329 330 329 334 336 337 339 340 340 341 343 345 331 327 325 325
329 330 329 328 328 327 326 325 325 322 321 320 316 312 313 314 318 318 318 320 320 320 320 321 322 323 325 332 331 326 324 325 321 318 315 316 318 315 313 313 315 315 316 318 318 317 314 313 313 314 314 315 314 314 314 314 314 315 318 314 316 317 315 315 314 317 318 321 323 332 331 330 334 338 337 336 338 339 341 342 344 341 328 324 324
330 329 330 327 324 323 325 325 331 323 319 319 316 312 312 312 318 317 317 317 318 319 319 320 322 322 322 326 329 325 324 323 317 314 310 313 314 312 312 314 315 313 313 314 313 313 314 314 316 318 318 316 319 319 320 315 315 317 321 320 321 318 315 316 317 317 316 320 327 336 330 331 333 335 336 329 330 336 339 341 341 343 338 334 331
Wind_Speed
5 5 4 5 5 4 5 5 4 5 3 2 2 2 2 2 3 4 4 3 3 4 3 3 3 3 4 4 3 3 4 4 4 4 4 4 4 6 11 10 10 12 15 16 17 18 18 18 18 19 18 18 18 18 17 18 18 18 17 17 17 17 16 16 16 16 15 15 14 14 13 13 13 12 12 12 12 12 11 11 11 11 11 11 10
6 5 5 6 5 4 4 4 5 3 2 4 3 3 4 4 4 4 4 4 4 4 3 4 4 4 4 5 4 4 4 4 4 4 4 4 4 5 10 10 10 11 14 17 17 17 18 18 19 19 19 19 19 19 18 18 18 18 18 18 18 17 17 17 17 16 16 16 15 14 14 14 13 13 13 13 13 13 12 12 12 12 12 11 11
5 5 5 5 5 4 5 4 4 4 3 4 3 4 4 4 4 4 4 4 5 4 4 4 4 3 4 4 5 4 4 4 4 4 5 5 5 4 6 10 10 11 13 16 16 16 17 17 19 19 19 20 20 20 20 19 19 19 18 18 18 18 18 17 17 18 17 16 15 15 14 14 14 14 14 13 14 13 13 13 13 13 12 12 12
5 5 6 5 5 4 4 3 5 5 4 4 4 4 4 3 3 3 4 4 5 5 4 4 4 5 3 4 4 4 4 4 5 5 5 5 5 5 5 5 9 12 14 15 16 17 16 17 18 18 19 20 20 21 20 20 20 20 19 19 19 18 18 18 18 18 18 17 16 15 15 15 14 14 14 14 14 14 14 14 14 13 13 13 12
4 6 5 5 4 4 4 5 5 5 4 4 3 2 3 2 3 3 4 4 5 5 4 3 4 5 4 4 4 5 5 4 5 5 5 6 6 5 5 6 5 9 14 15 16 18 17 17 17 18 19 19 20 21 21 21 20 20 20 20 19 18 18 19 18 18 18 17 17 16 16 16 15 15 15 15 15 15 14 14 14 14 14 13 13
5 4 5 5 4 4 5 5 5 4 3 3 2 2 2 3 3 2 4 4 4 5 4 5 4 4 4 5 4 5 5 5 5 5 5 6 6 5 5 5 5 6 6 13 15 16 18 17 18 18 18 19 20 20 21 21 21 21 21 21 20 19 19 19 19 19 18 18 18 17 17 16 16 16 15 15 15 15 15 15 15 15 14 13 14
4 4 5 5 4 4 4 4 1 0 2 3 3 1 1 2 2 3 3 4 4 3 3 4 4 5 4 4 5 5 5 6 5 5 5 6 5 6 6 6 6 5 6 5 11 16 17 17 18 18 18 18 19 20 21 21 22 21 22 21 21 20 20 19 19 19 18 18 18 18 18 17 17 16 16 16 15 15 15 15 15 14 14 13 14
4 3 4 5 1 2 1 2 4 2 2 1 1 2 2 2 2 1 3 4 4 4 3 4 3 3 3 4 4 4 5 5 6 6 6 5 5 6 6 6 6 6 6 6 5 9 17 18 18 18 18 18 18 19 21 21 21 22 22 22 22 21 20 19 19 19 19 19 19 19 18 18 18 17 17 16 16 15 15 15 15 14 14 15 15
4 3 1 1 3 5 2 2 1 2 1 1 1 1 1 2 1 1 1 2 2 3 3 3 4 3 3 3 5 5 5 5 6 6 5 5 6 6 6 6 7 8 6 6 6 6 11 18 19 20 20 18 16 18 20 21 22 22 22 22 23 22 21 20 20 19 19 20 19 20 19 19 19 18 18 17 16 15 15 15 15 15 15 15 14
3 3 5 5 2 2 2 2 1 1 2 2 2 1 1 1 3 1 2 2 3 4 4 3 4 5 5 5 6 5 6 6 6 5 6 6 6 6 6 6 6 7 7 7 7 7 6 12 18 19 20 18 18 17 19 20 22 23 23 23 23 23 22 21 20 20 19 20 20 19 19 18 17 17 17 17 17 16 15 15 15 15 15 15 15
3 3 3 3 4 3 4 3 3 2 2 2 1 1 2 1 3 4 3 3 3 4 4 4 4 5 5 7 6 7 7 6 5 6 6 6 6 5 4 5 5 5 6 6 6 6 7 6 6 8 11 19 19 19 20 21 21 21 23 23 24 24 23 22 21 20 21 20 20 20 19 19 18 18 18 17 17 16 15 15 16 16 16 16 16
3 3 3 3 3 4 4 3 3 2 2 2 3 3 3 3 4 3 4 3 3 4 5 4 4 5 6 7 7 7 8 7 6 5 5 5 5 5 5 4 4 5 6 6 6 7 6 6 5 6 7 11 19 20 21 20 20 21 22 23 23 23 24 23 22 21 21 23 22 21 20 19 19 19 18 18 18 17 16 16 16 16 16 16 16
3 3 4 4 4 4 2 1 1 2 2 4 4 3 3 3 2 2 2 3 3 3 4 3 3 4 4 5 7 6 8 7 6 4 4 5 5 5 5 5 4 4 5 4 5 6 5 6 6 6 6 6 9 18 18 19 20 20 20 24 24 23 23 24 24 22 23 23 23 22 20 20 19 19 19 19 18 18 17 17 17 17 17 17 16
3 3 3 4 4 2 1 0 1 3 3 3 3 1 1 3 2 3 2 3 3 2 3 1 1 2 5 6 4 5 6 4 3 3 3 4 4 4 4 4 4 2 1 0 2 3 4 6 6 6 6 6 7 7 10 14 19 23 21 22 25 26 25 24 23 25 24 24 24 24 22 21 20 20 20 20 19 19 18 18 17 18 17 17 17
2 3 4 3 2 2 2 2 4 3 2 3 1 1 3 4 3 4 4 2 2 3 3 4 2 1 3 2 3 6 5 5 3 8 7 5 3 2 2 3 4 2 1 1 3 4 5 5 6 6 6 7 7 8 8 11 11 18 21 22 23 25 26 26 25 25 26 25 25 25 24 22 22 21 21 20 20 19 19 19 18 18 18 18 18
4 3 2 2 2 3 2 3 3 2 3 3 2 4 3 3 2 3 2 3 1 2 1 2 2 1 4 0 3 2 4 2 6 6 4 6 7 4 2 2 2 2 3 5 6 5 5 5 6 7 7 7 7 8 8 7 13 19 21 22 21 20 25 27 27 27 25 26 25 24 23 23 22 22 21 21 21 20 19 19 18 18 18 18 18
1 1 2 2 3 3 3 4 3 3 3 3 3 5 4 3 3 3 3 2 2 1 2 1 0 2 1 2 2 2 1 4 7 4 2 6 5 4 3 3 3 3 3 5 6 6 6 6 6 6 7 8 8 8 8 8 8 9 12 19 21 20 22 24 27 28 28 27 28 26 24 23 23 23 21 21 22 21 20 20 19 19 19 19 19
3 4 4 4 3 3 3 2 1 0 1 2 1 1 3 2 3 3 3 3 2 0 2 3 1 2 3 4 4 2 3 3 2 5 3 2 2 2 4 4 3 4 4 5 6 6 4 6 5 7 7 7 8 8 8 9 9 9 8 10 20 21 21 22 25 28 30 30 28 27 26 24 24 23 23 22 22 23 22 21 20 20 19 19 19
3 3 3 4 4 3 2 1 1 2 2 2 2 3 3 2 1 2 3 2 2 1 2 3 4 1 3 5 6 5 3 1 2 2 6 2 1 4 4 5 4 3 5 4 5 5 5 4 6 6 7 6 7 8 8 9 11 12 14 15 17 19 21 23 24 27 28 26 25 26 27 25 24 24 23 23 22 22 23 22 21 21 20 20 20
2 2 3 3 4 3 3 3 3 2 2 3 1 1 1 1 2 2 2 3 3 3 3 3 1 2 2 2 3 4 4 5 3 2 2 6 8 3 3 3 5 5 5 4 3 4 5 5 5 6 6 6 6 7 8 8 9 9 10 17 18 18 19 21 22 24 25 26 23 23 25 27 26 24 24 23 22 22 22 23 22 21 21 21 20
2 2 3 2 2 3 4 4 3 3 3 3 2 2 1 1 1 2 3 4 4 3 2 3 2 4 1 2 1 2 2 4 3 3 3 2 5 6 8 4 3 5 5 6 5 4 4 5 5 6 6 6 6 7 8 8 8 9 10 16 19 20 20 20 21 23 25 24 26 29 26 26 27 28 25 23 22 23 22 23 23 23 22 21 21
1 0 2 1 4 3 4 4 4 3 3 3 2 2 1 1 0 2 2 3 3 3 4 4 3 3 2 2 0 1 2 1 1 2 2 3 4 5 6 8 9 6 6 6 6 7 6 6 6 6 6 6 6 7 8 8 8 8 10 18 19 20 20 21 22 23 23 21 24 29 28 30 27 28 28 27 25 22 23 22 23 23 23 23 22
1 1 2 3 3 3 4 4 4 3 3 3 2 2 1 0 0 0 0 1 1 2 2 2 2 2 2 2 2 1 1 1 2 2 1 2 3 4 4 4 5 10 7 5 7 8 7 6 6 6 7 7 7 7 7 8 9 10 16 16 18 20 21 21 21 22 22 22 22 24 27 28 28 28 28 27 27 27 25 23 23 23 24 24 23
1 1 3 4 3 2 3 3 3 3 3 3 3 2 2 1 1 0 1 1 1 1 1 0 0 1 2 2 2 2 1 1 2 1 1 2 2 4 5 3 4 4 6 10 8 5 5 7 6 6 7 7 7 7 7 8 9 15 14 16 19 19 20 20 21 21 22 23 22 24 25 27 28 27 29 28 27 27 26 25 23 23 24 24 24
0 3 3 3 1 2 2 0 1 2 3 2 3 3 2 2 2 1 1 1 1 2 1 1 1 1 2 2 2 1 2 2 1 2 3 1 0 2 3 2 4 6 5 3 5 7 6 6 5 6 6 7 7 7 7 7 7 11 15 13 19 19 20 20 21 22 23 24 24 24 25 25 25 25 25 26 27 26 26 25 25 24 24 24 24
2 3 3 3 2 2 2 2 2 3 3 3 3 3 3 3 3 2 2 3 1 2 2 2 2 2 2 2 2 2 3 2 2 1 1 1 2 2 4 3 3 5 3 3 2 5 3 3 5 6 6 6 7 7 7 8 9 11 16 13 15 19 20 20 21 21 22 23 24 25 25 25 26 25 25 25 25 25 26 26 25 25 24 24 24
4 4 3 3 1 1 2 3 3 3 3 3 3 3 3 3 3 4 3 3 2 2 3 2 2 3 2 3 3 2 3 3 1 2 1 1 1 2 1 6 4 3 4 2 4 3 7 5 4 5 5 6 6 7 8 8 12 18 16 12 12 18 19 20 20 21 22 23 23 24 25 25 25 26 26 26 25 25 25 25 25 25 25 24 23
4 3 3 3 2 3 3 4 3 3 3 4 4 3 3 4 3 3 4 2 3 3 4 3 3 4 3 3 2 3 3 3 2 2 2 1 0 0 0 1 3 6 4 5 2 3 3 4 4 3 4 6 7 7 12 14 11 17 19 11 11 12 17 19 20 21 22 23 23 23 24 25 25 26 26 25 25 25 25 25 25 25 25 24 23
4 4 4 4 3 4 4 4 3 4 4 4 4 4 4 4 4 4 4 4 3 4 4 3 4 4 3 4 4 4 3 3 2 3 1 1 0 0 1 1 2 4 5 3 5 4 2 2 5 2 5 7 8 8 10 10 13 16 12 12 12 12 15 18 20 20 22 23 23 23 23 24 24 25 26 26 25 25 25 25 25 25 25 25 24
5 5 4 4 4 4 4 4 3 3 4 3 3 4 3 4 4 4 5 4 4 3 4 4 5 4 4 3 3 3 3 3 4 2 3 2 1 1 1 2 2 2 2 5 6 2 5 2 2 4 7 10 9 9 8 11 15 18 13 13 14 13 18 20 20 21 21 21 22 23 23 23 24 24 24 25 25 25 25 25 25 25 24 24 25
5 4 4 4 4 4 4 4 4 4 3 3 3 3 3 4 4 5 5 4 4 5 5 4 5 4 5 5 4 4 3 3 2 3 3 2 2 2 2 2 2 3 4 3 5 3 2 5 5 6 7 10 10 10 10 10 13 17 14 13 14 18 22 18 21 21 21 21 21 22 22 23 24 24 24 24 24 25 26 26 26 25 25 24 24
5 5 5 5 4 5 4 5 4 4 4 4 3 4 3 4 5 6 5 4 4 5 5 4 4 5 5 5 5 4 4 3 3 3 3 3 3 3 3 3 3 3 3 3 8 10 4 6 7 9 8 8 10 11 12 10 11 18 13 13 15 20 16 13 18 20 21 21 22 22 22 22 23 24 24 24 24 24 24 25 25 25 25 25 24
4 4 5 5 5 6 5 5 5 5 4 5 4 4 4 4 5 5 5 4 5 5 4 5 4 4 5 5 5 5 4 4 4 5 4 4 3 4 3 4 3 3 3 4 7 10 6 4 6 7 8 8 9 8 12 12 12 11 12 13 15 14 13 12 12 17 20 21 22 22 23 23 23 24 24 24 24 23 24 25 25 25 25 24 24
4 5 5 6 5 5 5 5 6 6 5 5 5 4 4 4 5 4 5 5 5 5 4 4 4 4 5 6 5 6 5 5 5 5 5 4 4 3 4 5 5 5 5 4 6 6 11 5 7 5 8 6 10 8 10 13 13 12 13 13 12 13 13 12 11 12 19 20 21 23 23 23 24 24 25 25 24 24 24 25 26 25 25 24 24
4 5 6 6 6 5 5 5 5 5 6 5 4 4 4 5 6 6 6 5 5 5 5 6 5 4 4 5 6 6 4 5 6 7 6 6 5 5 6 4 5 6 5 6 5 7 9 9 6 9 8 7 8 12 11 11 11 12 13 13 12 11 11 13 12 11 16 19 21 21 23 23 23 23 24 24 24 24 24 24 25 24 24 24 24
5 5 5 6 5 5 5 5 5 6 5 4 4 4 5 6 7 7 6 6 5 5 6 6 6 5 6 6 6 6 5 6 6 7 6 6 6 6 6 6 6 7 7 5 6 7 6 10 8 8 9 9 10 9 10 10 11 11 11 12 12 13 13 12 13 12 14 20 21 21 21 22 23 22 23 23 23 23 23 23 23 23 23 23 23
5 5 5 4 5 5 6 6 6 5 5 5 5 5 5 6 7 7 7 5 5 6 6 6 6 6 5 6 7 6 5 7 6 6 7 7 7 6 7 7 7 7 6 6 6 6 8 10 10 7 8 9 9 10 10 10 11 10 10 11 12 13 13 13 11 12 17 20 20 20 20 21 22 22 22 22 22 22 22 22 22 22 23 23 22
6 6 6 5 5 5 6 6 5 6 5 6 6 6 5 5 6 6 6 5 6 6 6 6 6 6 5 6 6 6 5 6 7 7 7 8 7 7 8 7 7 6 6 6 6 7 8 9 9 11 7 10 10 8 9 9 10 12 12 12 11 11 11 11 11 10 9 9 9 11 14 17 20 22 22 22 22 22 22 21 22 22 22 22 22
6 6 5 5 4 5 5 5 6 6 5 5 5 4 4 5 6 6 6 6 6 6 6 7 6 6 6 6 6 6 6 7 8 8 8 8 8 9 9 8 7 4 6 7 6 7 8 9 9 9 10 8 8 12 10 9 10 10 12 12 12 10 9 10 12 10 9 11 14 18 15 13 15 15 18 22 22 23 22 22 22 23 22 21 21
6 5 5 5 4 4 4 4 4 4 4 4 4 4 4 5 5 6 6 6 6 6 6 6 6 6 6 6 6 6 6 7 7 8 8 8 7 7 7 6 6 5 7 6 6 7 8 8 8 10 8 10 9 9 9 9 10 9 7 9 13 14 13 11 11 12 11 11 11 10 12 14 14 16 18 19 21 22 23 22 23 23 23 21 21
6 6 5 5 4 4 3 3 4 4 4 5 4 4 4 5 5 6 7 7 7 7 6 6 6 6 6 6 6 6 7 10 12 11 10 9 7 8 8 6 5 7 7 6 7 7 7 7 9 8 9 9 9 10 11 10 11 12 12 11 12 12 12 12 12 11 10 11 11 11 10 9 10 10 9 9 11 17 19 21 17 22 22 21 22
6 6 5 4 4 4 4 4 4 5 5 5 6 9 8 6 5 6 6 6 6 6 6 6 6 5 6 6 6 10 11 12 12 12 13 14 13 9 8 6 6 6 6 7 7 7 7 8 9 9 9 10 10 11 12 12 12 12 12 12 13 12 12 12 12 10 9 10 11 12 11 8 9 10 9 10 10 11 10 11 12 15 18 22 22
7 5 4 5 5 5 5 5 6 6 6 5 10 11 12 12 7 5 6 7 6 6 6 6 7 7 6 6 5 6 7 7 7 10 11 11 11 11 12 12 10 8 7 8 9 8 8 8 9 9 10 11 12 11 12 14 12 12 12 11 13 12 11 12 14 13 7 9 11 11 11 9 9 10 10 10 11 9 10 11 16 20 20 20 22
5 4 5 6 6 5 5 5 6 7 7 9 12 12 12 12 10 7 6 6 6 6 6 7 7 6 7 6 5 4 5 5 6 6 7 9 10 10 11 11 13 14 14 11 9 8 9 9 9 10 10 11 12 11 14 13 14 14 13 13 13 14 13 13 12 13 10 7 9 10 12 9 9 10 10 10 10 9 11 14 18 19 20 21 21
4 5 7 6 6 5 5 5 7 7 7 10 13 13 12 12 13 10 6 6 7 7 7 7 7 6 6 6 6 6 5 8 7 5 5 6 8 10 10 12 13 14 13 15 16 12 9 9 10 11 11 11 11 13 14 16 14 15 16 15 13 13 13 13 14 13 13 9 10 11 11 9 8 10 11 10 9 9 11 14 18 19 20 21 21
6 6 5 6 6 6 6 7 7 7 7 10 13 12 12 13 13 9 6 7 7 6 6 6 6 6 7 7 7 7 6 5 5 5 4 5 5 5 6 6 6 9 10 13 14 16 14 11 10 11 13 11 13 15 16 16 15 16 16 17 16 15 15 15 15 15 14 9 10 9 11 11 9 9 11 10 9 9 9 12 18 19 20 20 20
8 7 7 7 7 7 6 6 7 7 8 7 6 7 8 9 10 8 5 5 4 5 5 5 6 7 6 7 6 7 6 6 6 6 4 5 4 5 6 6 6 6 7 8 7 7 7 7 8 10 13 14 14 15 15 16 16 16 16 19 19 18 17 15 14 15 14 11 11 10 13 10 7 10 10 9 8 9 8 11 16 18 19 19 20
6 6 6 6 6 7 8 7 7 8 3 2 2 1 3 5 6 4 5 5 5 4 5 6 6 6 6 6 6 7 6 6 9 11 6 4 4 5 6 6 6 7 8 8 10 11 11 10 9 11 12 16 19 19 18 18 17 17 17 17 16 15 15 15 15 12 12 10 10 11 11 11 7 11 9 8 7 8 8 7 13 18 19 19 19
7 7 7 7 6 6 7 5 4 4 3 3 3 4 5 7 4 4 3 3 3 5 6 6 6 5 5 5 5 6 6 6 10 9 3 4 4 4 5 6 6 7 9 8 9 11 12 14 16 19 22 23 24 25 26 27 22 19 16 16 16 14 14 17 14 12 13 9 9 12 12 11 9 9 9 6 7 8 8 8 8 13 18 18 19
8 8 6 5 5 4 4 4 4 4 3 4 4 7 8 8 6 4 4 4 4 5 6 6 5 5 6 11 9 6 7 7 11 4 5 4 3 2 2 5 7 8 9 7 7 8 11 14 16 18 20 21 23 25 25 25 25 22 16 19 20 13 15 14 13 12 10 9 12 11 10 12 8 8 9 3 5 5 7 7 8 9 15 16 19
7 6 4 5 2 1 3 4 5 4 3 5 6 5 3 4 4 3 2 2 3 5 5 5 5 5 5 6 8 8 7 9 11 3 5 3 2 2 2 4 6 9 8 7 9 11 11 11 11 11 12 16 15 15 17 23 25 23 19 18 15 15 13 13 13 10 9 11 11 12 11 9 10 8 7 3 5 4 5 7 8 7 7 7 9
Wind_Direction
216 220 215 220 225 224 224 237 248 251 260 241 202 213 233 239 248 258 262 269 268 262 246 250 249 260 257 265 242 233 239 243 243 243 244 241 248 247 241 237 231 229 222 217 212 208 207 204 204 205 206 208 210 210 209 208 209 212 214 214 213 212 213 212 212 212 213 213 214 214 216 219 220 221 223 223 225 226 228 229 231 234 237 239 239
213 212 199 219 218 218 230 241 249 254 233 241 221 205 220 222 233 244 259 262 262 258 240 247 237 230 236 249 256 245 239 243 243 249 251 240 243 256 250 233 231 233 229 220 219 214 212 209 209 208 207 209 212 214 214 213 212 213 214 215 216 216 216 216 216 215 215 217 216 216 217 219 221 222 224 227 227 228 231 232 233 236 238 239 241
205 199 205 217 218 217 227 244 260 255 212 225 210 212 221 226 229 232 241 252 254 253 247 244 241 233 226 233 249 253 253 246 249 242 251 251 239 249 268 258 235 229 233 227 224 224 219 215 213 213 211 210 211 215 217 217 217 217 216 216 217 217 218 218 219 219 218 218 218 218 218 219 222 223 225 227 231 232 232 235 236 237 239 240 242
183 192 199 207 214 215 229 239 247 254 232 212 202 202 211 229 254 250 250 256 264 266 255 244 255 253 232 238 245 248 252 244 242 241 240 243 243 230 238 258 260 239 232 231 230 227 223 221 217 217 216 215 213 213 217 219 220 220 220 220 219 219 219 220 221 222 222 222 221 219 219 220 222 224 226 228 231 233 234 235 237 238 240 241 241
187 188 196 199 206 209 222 228 237 242 242 221 191 174 173 197 228 244 251 261 269 269 269 260 264 270 269 266 260 267 266 259 252 247 241 242 237 236 220 220 228 250 239 231 229 234 228 227 223 220 220 219 219 217 217 219 220 222 223 223 224 224 221 221 222 224 225 224 224 222 220 221 222 224 227 229 230 232 234 236 237 238 241 243 243
188 198 191 193 200 208 218 234 232 242 226 169 144 216 252 249 257 283 285 275 264 268 277 282 275 281 285 281 283 271 275 278 264 251 243 242 242 235 239 239 226 219 234 232 229 232 232 232 229 228 225 224 222 221 222 222 222 222 224 225 226 227 227 225 223 224 226 227 226 225 223 222 223 224 226 230 232 234 236 237 238 239 240 242 244
202 188 197 192 197 212 223 237 310 58 231 235 229 272 265 273 254 250 269 280 278 270 262 269 281 288 281 279 274 279 278 270 270 261 251 243 233 237 231 227 239 237 229 222 230 230 231 232 234 233 228 228 229 228 225 226 226 224 224 225 227 228 229 229 226 225 226 227 229 228 227 225 225 225 226 228 231 233 236 237 238 240 242 242 244
208 186 189 194 177 242 178 288 231 199 210 229 195 208 226 255 269 294 306 300 300 293 290 281 279 276 272 274 275 282 285 283 277 271 259 251 242 239 228 222 218 227 228 230 227 226 227 229 229 231 232 230 231 232 233 230 229 229 227 226 225 227 229 229 230 228 227 228 229 230 230 228 227 227 226 227 229 231 234 237 238 239 241 243 243
176 177 76 40 230 230 210 216 245 229 242 227 251 245 250 279 294 324 277 285 299 296 302 298 295 284 284 287 288 286 278 267 269 267 273 262 253 243 240 230 222 221 224 222 224 227 227 225 228 230 230 229 228 232 233 235 234 231 231 229 227 226 227 229 230 231 230 229 229 230 231 231 229 228 228 227 228 228 230 234 238 239 241 242 243
161 139 159 194 177 188 216 213 198 157 170 172 218 267 282 286 293 269 272 288 293 298 298 295 287 288 291 285 280 277 270 267 264 267 265 265 259 244 233 230 223 221 222 221 218 220 224 226 227 229 230 228 227 227 230 233 235 236 233 231 230 229 227 228 229 231 233 232 231 230 230 230 230 228 228 228 228 229 230 232 235 238 240 242 243
157 162 167 191 194 208 211 218 184 164 161 175 217 263 272 272 282 295 301 268 255 268 268 275 291 292 289 284 283 276 273 265 256 256 255 260 263 260 245 229 223 221 221 223 224 222 222 223 225 230 234 234 230 228 229 232 236 238 237 236 235 232 231 229 229 230 232 234 234 233 230 229 229 229 228 228 229 230 231 232 234 236 239 242 244
162 181 191 208 211 218 223 215 193 160 174 226 262 257 252 266 273 270 289 302 285 277 281 284 284 290 287 287 277 277 274 267 261 247 254 254 254 259 258 255 231 231 220 218 222 222 224 225 226 228 233 237 237 234 230 229 233 235 236 238 237 238 235 232 231 230 231 234 235 235 234 231 230 228 227 228 228 229 230 231 233 234 236 239 241
192 183 206 215 213 219 212 226 188 171 201 230 233 240 233 223 239 247 264 287 295 258 263 258 300 306 292 277 288 272 271 274 271 276 251 246 245 246 251 254 248 240 246 240 226 221 221 229 229 229 234 235 240 239 238 238 233 232 233 237 237 235 237 237 233 230 231 232 234 235 234 234 233 231 228 227 226 227 228 229 231 232 234 236 239
192 193 202 204 215 230 233 355 194 218 222 239 239 253 308 278 263 290 213 228 262 223 241 105 329 256 322 318 291 303 284 287 301 297 278 263 245 238 242 242 245 218 103 136 259 257 240 229 225 226 228 235 242 249 236 237 239 234 231 234 237 236 234 233 236 237 232 230 232 235 234 232 232 233 233 230 228 227 227 228 229 232 233 235 236
171 192 198 204 213 215 202 185 210 212 219 241 243 249 248 262 252 245 294 259 242 247 240 182 234 286 282 325 323 355 332 345 345 346 335 339 338 288 231 203 213 180 225 277 274 253 239 232 234 233 231 227 234 234 231 238 235 236 233 233 234 236 235 234 231 233 235 232 231 231 232 232 230 230 231 233 232 230 229 228 229 231 233 235 237
193 184 201 210 209 232 193 224 247 238 231 243 173 223 246 251 217 226 225 302 343 305 280 166 135 55 335 57 297 356 332 326 335 313 321 356 349 10 5 320 335 317 294 272 255 245 245 236 239 241 240 235 231 232 235 228 234 235 235 233 233 237 240 237 234 235 235 237 235 231 229 229 229 229 228 230 232 233 233 232 230 231 233 235 237
170 187 197 216 199 201 185 214 230 234 212 210 198 216 224 219 198 210 209 208 298 304 319 55 136 176 184 358 344 14 297 297 332 285 355 351 333 359 347 344 315 300 281 268 264 259 250 244 236 234 236 237 237 235 232 235 234 231 235 237 235 232 236 238 237 233 232 234 236 234 230 228 227 228 227 227 230 232 232 232 232 232 233 235 236
162 161 161 161 162 169 169 144 188 158 204 219 209 221 249 227 198 176 209 218 199 302 299 314 272 201 164 163 204 203 281 305 3 311 348 277 275 317 325 318 317 318 299 280 277 266 244 250 246 242 238 234 235 239 238 235 234 235 229 231 233 231 232 230 236 241 239 236 235 234 233 229 227 227 227 226 227 230 231 231 232 232 232 234 236
163 169 172 150 151 150 140 135 107 100 117 119 144 204 225 222 170 154 196 194 147 242 268 277 335 290 183 190 207 220 194 165 252 298 325 324 345 326 318 309 317 313 304 293 280 284 280 255 257 251 248 241 236 238 242 242 240 238 233 229 226 227 230 232 230 234 240 242 243 239 236 232 229 228 228 228 227 227 230 231 232 232 232 233 235
114 108 176 174 160 155 126 111 115 131 110 102 155 227 260 267 198 196 183 188 184 196 254 263 211 280 227 236 227 229 209 220 207 182 241 306 316 306 257 315 319 306 294 294 294 281 282 272 255 250 243 243 238 237 238 241 241 241 241 236 228 225 229 232 231 232 238 239 241 252 248 241 235 230 229 228 226 226 226 230 232 232 231 232 233
111 140 197 200 131 146 126 121 128 128 113 126 136 156 142 107 207 208 212 219 204 212 189 248 212 237 292 307 309 258 229 220 210 180 206 229 279 310 319 311 290 276 298 307 297 285 283 280 274 272 263 251 242 239 237 236 236 235 239 238 234 230 227 231 233 232 234 232 230 233 240 248 245 239 230 229 225 225 224 226 228 230 231 231 231
24 88 103 165 164 148 133 147 147 149 136 142 132 99 112 125 178 202 216 222 232 206 209 230 217 252 213 206 219 321 359 1 108 200 262 205 251 298 308 323 329 311 311 304 314 313 303 295 294 286 280 269 255 247 241 238 235 235 237 239 237 235 231 229 231 235 235 232 233 235 232 236 240 243 240 233 230 224 223 223 222 224 227 230 230
153 135 81 129 135 154 149 166 170 153 147 143 143 174 198 214 277 54 158 208 235 197 224 230 230 255 269 225 240 223 224 222 260 264 204 268 300 279 288 288 291 307 312 309 308 304 297 295 291 285 279 279 271 260 253 247 241 237 237 236 239 240 238 235 232 231 232 233 234 235 236 237 237 238 241 237 233 233 229 224 221 221 224 227 228
46 31 80 121 140 154 167 160 145 130 160 173 170 180 198 192 192 183 257 234 208 188 171 356 266 234 269 246 238 238 246 229 269 274 272 269 226 282 295 298 293 243 283 309 304 270 296 302 289 286 288 289 282 271 266 259 253 249 244 245 245 244 242 240 237 235 234 233 233 236 238 239 239 239 240 240 237 234 232 231 226 222 222 225 228
334 83 123 157 151 107 126 106 133 190 186 178 193 197 186 189 206 219 233 280 258 197 181 221 225 202 221 229 223 214 248 241 243 281 297 261 205 300 280 264 265 299 297 290 303 314 294 279 297 300 301 292 291 287 276 270 260 258 252 253 250 248 246 244 241 238 235 234 234 235 236 237 238 239 241 241 239 239 236 233 231 228 224 226 227
182 169 187 192 181 185 178 182 195 201 194 199 199 210 191 198 211 223 244 254 226 206 219 230 231 238 206 227 236 229 245 251 261 298 289 9 332 308 301 297 269 272 284 310 298 329 318 317 310 303 302 301 300 299 294 284 278 263 258 253 255 252 250 247 246 243 239 236 234 234 235 235 236 237 238 240 241 238 236 234 233 232 230 227 229
176 203 206 190 187 184 200 185 202 208 195 205 218 219 221 208 216 220 236 242 237 209 242 223 247 259 257 220 238 234 235 246 217 262 215 203 214 251 306 324 317 290 296 274 291 238 270 300 316 319 309 312 315 315 310 305 299 292 273 265 263 260 256 254 251 249 246 242 238 237 236 235 236 236 235 236 237 239 237 235 233 233 234 235 233
212 191 218 179 182 202 196 202 204 211 205 204 216 223 227 223 244 233 242 238 223 222 240 212 225 231 234 245 212 244 236 228 209 219 217 211 184 194 165 245 303 307 306 294 305 282 248 301 304 260 324 325 320 320 312 308 304 300 295 284 275 268 261 256 253 251 249 246 242 239 238 237 236 236 236 235 235 235 237 236 233 232 233 233 234
203 205 209 207 196 189 201 217 223 218 221 229 228 227 224 223 232 238 242 251 224 229 236 224 232 228 233 229 216 229 233 212 205 208 200 159 173 182 192 234 217 287 309 295 301 305 288 334 322 318 342 319 312 310 305 296 294 294 291 288 280 272 266 261 256 251 248 247 244 241 238 237 237 236 235 235 235 235 235 235 234 233 233 233 233
193 204 198 198 202 212 202 223 233 224 222 234 232 237 227 229 229 231 232 226 223 235 234 224 238 234 237 239 230 231 235 193 208 205 179 180 182 191 215 232 205 222 257 287 288 229 279 300 270 294 319 312 308 303 300 295 293 295 286 283 282 277 272 266 261 257 252 247 244 241 239 237 236 236 235 234 234 234 234 235 235 233 233 234 233
200 194 192 207 208 213 202 218 224 226 222 223 223 229 217 230 236 231 240 225 219 229 236 220 232 222 230 233 229 229 227 221 219 217 203 178 189 194 196 189 215 199 234 258 289 256 233 303 292 281 292 301 303 302 298 293 292 294 290 282 280 276 274 270 263 257 253 249 244 241 239 237 236 235 234 233 233 233 233 234 235 233 232 233 234
200 195 199 205 205 209 213 217 226 231 234 240 223 221 206 212 219 223 239 228 224 227 241 231 227 219 219 223 228 221 225 218 220 218 224 215 193 191 195 198 229 222 219 237 257 273 252 271 282 291 290 293 299 298 297 296 291 296 294 289 282 279 274 271 265 258 252 248 246 242 239 235 234 234 233 232 232 233 234 235 234 233 231 231 233
203 203 201 207 209 211 217 225 226 231 229 239 232 215 205 221 230 230 240 232 227 237 235 248 238 224 218 220 229 226 211 211 222 222 220 222 214 210 206 194 228 240 213 237 259 278 280 228 267 285 290 297 295 290 296 297 297 295 291 289 289 282 275 268 267 261 254 247 245 243 240 236 233 232 232 232 232 231 231 233 233 233 231 231 232
191 204 210 218 217 215 218 232 235 234 233 231 230 214 225 235 248 238 237 232 235 243 234 237 242 231 223 222 232 228 210 211 214 217 218 224 222 236 235 212 219 241 225 226 250 265 289 297 290 278 287 287 291 291 294 299 298 296 293 292 287 283 277 271 265 263 257 251 244 241 240 238 235 233 233 234 234 233 231 230 231 231 230 230 230
206 208 220 224 226 225 228 235 237 240 239 235 228 218 230 237 241 241 234 230 230 235 229 232 233 231 232 231 232 222 214 216 219 219 213 217 217 220 240 225 232 238 237 223 243 268 277 288 291 296 294 295 288 298 296 288 288 290 290 288 288 285 276 269 265 262 259 254 248 241 238 238 236 234 233 233 232 232 231 230 230 230 229 228 228
216 225 221 226 227 228 233 240 240 244 251 248 242 230 234 237 237 238 239 236 233 229 230 234 235 227 228 233 238 229 220 222 224 222 222 218 216 220 227 232 225 243 245 241 232 251 273 286 289 289 294 300 292 284 287 286 289 289 284 286 285 283 280 273 265 261 258 254 249 242 237 235 235 233 231 231 230 230 230 230 230 230 229 227 227
223 226 236 229 237 244 243 247 250 249 250 250 245 240 237 235 235 238 238 235 234 234 234 236 237 231 230 226 237 233 228 229 233 230 229 227 227 222 227 229 229 237 242 242 251 248 269 277 284 280 288 286 280 287 289 296 296 290 286 285 289 289 285 276 266 260 257 254 249 242 237 234 233 232 230 229 230 230 230 229 229 229 229 228 226
225 218 222 228 219 227 231 238 239 240 237 232 231 235 238 240 240 242 241 236 236 237 241 243 240 235 233 236 239 235 232 230 236 232 230 233 233 230 232 232 231 233 244 253 251 257 259 270 280 291 285 291 296 287 294 295 297 300 297 290 287 283 284 285 273 265 258 251 251 245 240 238 236 233 231 230 230 230 230 229 229 229 229 228 227
198 198 200 195 211 201 221 220 225 221 221 224 228 235 238 241 242 243 243 239 240 237 239 239 241 239 239 242 245 239 236 234 238 237 233 233 232 234 233 232 234 227 245 249 251 258 264 275 280 276 286 280 283 300 300 294 289 285 293 299 297 295 292 293 290 278 263 256 248 243 238 230 228 230 231 231 230 229 229 228 229 229 229 228 226
177 176 195 206 226 213 235 225 224 221 224 233 235 232 231 232 234 238 236 236 238 239 240 243 242 244 244 244 243 242 239 242 239 243 235 237 235 245 247 240 230 231 246 255 259 259 266 271 277 285 280 289 295 283 290 298 300 293 281 290 296 300 300 293 283 286 279 263 256 250 241 236 234 230 230 230 230 230 228 228 228 228 227 226 225
182 190 197 193 211 241 244 230 245 252 249 247 240 234 234 238 227 233 234 234 235 238 242 245 246 245 250 250 249 250 248 250 248 244 239 230 229 235 246 237 229 236 253 258 257 262 266 274 279 275 281 288 290 300 306 306 302 300 301 295 284 280 283 288 287 276 270 268 261 252 244 223 225 225 223 227 230 228 232 229 233 231 229 225 224
189 195 197 200 203 217 238 255 257 260 257 244 233 228 223 223 226 229 234 238 238 239 245 252 254 244 241 240 243 245 248 255 263 262 251 244 240 235 241 230 237 245 246 248 256 262 268 271 273 280 286 286 293 298 297 296 294 293 294 292 289 289 287 282 279 271 266 261 257 252 247 227 218 226 218 225 231 219 223 220 223 224 225 223 223
198 198 191 206 217 222 223 234 252 255 252 244 237 234 230 227 223 226 230 239 238 240 242 244 253 262 263 254 247 251 255 265 268 264 255 251 251 247 246 248 246 244 254 257 261 262 265 267 273 276 277 284 287 292 294 298 296 291 291 291 286 285 280 285 289 292 259 254 256 250 251 229 213 224 221 222 225 218 216 221 218 219 221 218 217
205 192 208 216 219 226 231 238 245 249 249 245 242 237 230 227 225 224 226 233 238 239 240 242 246 249 254 260 257 247 252 252 255 265 269 260 253 254 256 255 255 249 238 238 258 264 261 266 272 273 279 281 289 295 294 295 296 296 290 286 282 279 275 269 266 269 279 270 261 249 249 236 212 221 227 224 222 218 217 217 215 214 216 218 214
191 200 216 219 228 233 235 247 252 251 247 245 242 236 229 229 232 227 228 227 231 236 238 238 240 241 247 254 260 253 249 260 263 262 265 274 268 261 260 265 265 260 255 244 238 243 259 269 275 278 276 281 289 287 285 289 293 291 291 284 278 271 264 261 260 265 266 258 265 257 253 244 210 217 228 226 220 217 220 214 211 211 213 214 214
202 212 218 222 230 235 234 236 249 252 250 246 238 233 232 235 241 235 229 230 232 238 241 244 244 246 246 246 252 258 255 256 261 263 265 258 265 273 273 265 264 269 262 253 251 250 251 257 259 263 269 273 278 279 283 286 291 288 287 283 279 271 265 257 260 260 262 259 259 265 258 249 222 221 224 229 216 217 217 210 205 208 208 209 211
207 210 214 220 225 229 230 227 235 249 248 264 268 261 262 259 261 253 245 243 243 247 254 253 252 254 256 250 245 248 255 258 257 258 259 261 261 267 270 272 274 274 273 274 271 272 274 266 257 262 271 274 272 275 281 284 281 278 274 275 274 271 268 266 260 254 258 250 252 254 256 252 216 223 225 225 215 220 215 216 204 205 207 207 208
213 211 219 212 219 222 221 224 231 245 252 75 155 214 243 256 245 234 228 229 240 253 264 261 258 259 258 255 250 251 248 250 261 266 261 247 251 266 274 283 290 283 277 270 270 272 270 268 268 271 278 279 280 280 280 281 282 279 275 272 268 262 258 253 249 250 248 239 226 239 253 254 217 222 228 222 211 221 215 216 206 205 206 206 206
209 210 211 209 209 215 227 225 222 235 198 218 230 253 252 250 232 229 215 224 239 253 258 264 264 266 267 257 246 247 250 253 261 270 230 190 237 259 286 294 288 289 288 290 271 263 267 273 276 276 274 274 277 282 284 281 278 277 278 272 259 253 247 243 242 239 241 235 230 224 237 246 228 225 229 216 204 214 215 215 211 204 205 205 205
210 210 206 207 218 224 232 222 195 174 195 232 229 242 231 221 196 190 196 208 252 264 277 279 278 280 275 275 269 248 248 259 267 267 175 193 240 278 280 283 297 300 296 301 310 303 297 288 280 278 278 282 285 284 284 284 285 283 281 277 273 252 239 231 235 231 241 232 232 209 217 233 227 221 226 188 200 222 213 214 210 202 203 206 206
207 200 189 199 199 154 164 158 159 159 205 233 209 208 179 179 192 197 190 230 264 270 272 288 290 275 278 287 283 275 270 272 285 182 163 173 188 210 226 290 293 291 291 318 311 309 310 308 298 296 293 289 290 293 295 292 289 287 281 274 268 245 229 223 222 221 233 236 223 187 208 222 216 215 200 181 221 236 211 207 204 197 183 191 202